Timeline UpdatesTrip UpdatesNews PostsPvt Posts♥♥Travel TipsAdmin PostsConv PostsFollowed PostsChat RequestsBlog PostsPNR Posts

Disclaimer
Search
 
 
Tue Nov 25, 2014 07:21:30 ISTHomeTrainsΣChainsAtlasPNRForumGalleryNewsFAQTripsMembersLoginFeedback
PNR Super Search

Ticket PNR Status Inquiry - PNR: 475-xxxxxxx (E-Ticket)

OLD STATUS

Status Last Updated on: Jul 05 2012 (9:14AM) IST

Date of Journey: Fri Jul 06, 2012   Class: Sleeper - SL
Passenger 1: Can/Mod (Booking Status: W/L 9,PQWL)
Passenger 2: Can/Mod (Booking Status: W/L 10,PQWL)
Chart NOT Prepared

Yesvantpur-Howrah SF Express/12864

Travel Time: 14h 26m    14 halts    Distance: 772 km    Avg Speed: 53 km/hr
Type: SuperFast
Zone: SER/South Eastern
Departs @ 20:00 (Avg 29m late)
Platform# ???
SMTWTFS
Banaswadi/BAND 
Arrives @ 10:26 +1 night (Avg 49m late)
Platform# 3
SMTWTFS
Eluru/EE 

14 halts. 117 intermediate Stations between Banaswadi and Eluru

Show ALL intermediate Stations  Show Old Time-Table

#TrkCodeStation NameX/OArrivesAvgDepartsAvgHaltPFDay#KmSpeedElevZoneAddress
1%==%YPRYesvantpur Junction (6)  -19:35+1961-14.839919mSWRBengaluru 560022, Karnataka
2/--/BANDBanaswadi (2)»  20:00 19:58+2820:02 20:00+292m--10.029912mSWRBangalore, Karnataka
3/==/KJMKrishnarajapuram (4)  20:10 20:13+3520:15+365 2m216.258909mSWRBengaluru-560016, Karnataka
4/==/BWTBangarapet Junction (6)X  21:15 21:13+3121:17 21:15+312m4162.668815mSWRBangarapet, Karnataka
5/==/KPNKuppam (2)  21:45+321:47+52m--196.733688mSWRKuppam, Andhra Pradesh
6/==/JTJJolarpettai Junction (5)  23:00+1323:05+165m11137.063405mSRJolarpettai, Tamil Nadu
7/==/KPDKatpadi Junction (5)X  00:25+1200:30+195m32220.952213mSRVellore 632007, Tamil Nadu
8/--/TPTYTirupati Main (5)X  02:30+2702:35+285m12325.840150mSCRChittoor Distt, Andhra Pradesh
9/==/RURenigunta Junction (5)X  02:50+3603:00+3810m12335.843113mSCRChittoor District, Andhra Pradesh
10/==/GDRGudur Junction (3)X  04:55+1705:00+175m22419.19219mSCRGudur, Andhra Pradesh
11/==/NLRNellore (4)  05:25+3105:26+331m22457.68121mSCRNellore, Andhra Pradesh
12/==/OGLOngole (3)X  06:52+3106:53+321m12574.48512mSCROngole, Andhra Pradesh
13/==/CLXChirala (4)X  07:28+4607:29+471m--2623.7908mSCRChirala, Andhra Pradesh
14/==/BPPBapatla (3)  07:40 07:39+4107:41 07:40+421m--2638.88210mSCRBapatla, Andhra Pradesh
15/==/TELTenali Junction (5)  08:11+4808:12+491m42681.42616mSCRTel: 08644-227834, Andhra Pradesh
16/==/BZAVijayawada Junction (10)  09:25+1609:40+2015m72712.67724mSCRVijayawada 520001, Andhra Pradesh
17/==/EEEluru (3)•X  10:26+4910:27+501m32772.09019mSCREluru Ph.no. 08812 226401., Andhra Pradesh
18/==/TDDTadepalligudem (3)  11:00 10:59+4511:01 11:00+451m--2819.84218mSCRTadepalligudem, Andhra Pradesh
19/==/RJYRajahmundry (3)X  12:00+3912:05+385m32861.97923mSCRRajahmundry ph.no. 0883-2420541, Andhra Pradesh
20/==/SLOSamalkot Junction (3)X  12:43+4212:44+431m12912.14718mSCRSamalkot, Andhra Pradesh
21/==/VSKPVisakhapatnam Junction (8)X15:55+1716:15+920m321061.76711mECoRVishakhapatnam 530001, Andhra Pradesh
22/==/VZMVizianagaram Junction (5)  17:10+1517:12+162m221122.97963mECoRVizianagaram, Andhra Pradesh
23/==/CHESrikakulam Road (4)  18:05+1118:07+122m--21192.47234mECoRsrikakulam road ph .no. 08942-287222, Andhra Pradesh
24/==/PSAPalasa (3)X  19:08+1119:10+122m121265.48131mECoRKasibugga, Andhra Pradesh
25/==/BAMBrahmapur (3)  20:05+1520:10+155m121339.77427mECoRBerhampur, Odisha
26/==/BALUBalugaon (3)XO  21:12+1421:14+152m--21415.87611mECoR752030, Odisha
27/==/KURKhurda Road Junction (7)X  22:10+1722:20+1810m--21486.95725mECoRKhordha, Odisha
28/==/BBSBhubaneswar (4)X  22:45 22:40+2422:50 22:45+265m121505.85640mECoRBhubaneshwar, Odisha
29%==/CTCCuttack Junction (5)  23:15+3223:20+325m121533.78328mECoRCuttack, Odisha
30/==/JJKRJajpur Keonjhar Road (4)  00:10 00:12+3300:12 00:14+332m--31605.73536mECoRJajpur, Odisha
31/==/BHCBhadrak (4)X  01:28+701:30+82m--31649.38523mECoRBhadrak, Odisha
32/==/BLSBalasore (4)  02:14+1802:16+182m331711.87419mSERBalasore, Odisha
33/==/KGPKharagpur Junction (10)  03:50+1003:55+145m531827.97342mSERDist: West Medinipur, West Bengal
34/==/MCAMecheda (6)  04:45 04:42+2404:47 04:44+232m--31884.76810mSERdist - purba Medinipur, West Bengal
35/==/SRCKolkata Santragachi Junction (6)  05:29+005:30+01m431935.4117mSERDist: Howrah - 711104, West Bengal
36/==/HWHKolkata Howrah Junction (23)  06:10+13-1831942.9-10mERHowrah 711101, West Bengal
Scroll to Top
Scroll to Bottom